CHOMPTT (43855 NORAD) Tracking and Keplerian Element Data

This shows tracking and keplerian element data for the satellite.

Feedback or suggestion? Click here.




ElementValue
Catalog43855
NameCHOMPTT
Epoch Orbit478
Epoch Day16.92453667
Epoch Year2019
RAAN157.4044
Inclination85.0372
Eccentricity0.0018696
Argument of Perigee150.4555
Mean Anonmoly209.776
Mean Motion15.22088429
Decay Rate4.2E-07
L11 43855U 18104G 19016.92453667 .00000042 00000-0 00000 0 0 9993
L22 43855 85.0372 157.4044 0018696 150.4555 209.7760 15.22088429 4783

Live tracking and technical data element details for CHOMPTT (NORAD 43855). CHOMPTT can be tracked NOW for your location showing map with azimuth and elevation plus other details from your city location.

Track the satellite on the map from your city or location and see movement details for azimuth, elevation, latitude, longitude, range, height, and movement on the map or in text.







IsCatalogInMostPopularTable: catalog: 43855, numindb: 26
Update: records affected: 1



GetName: 43855 CHOMPTT

Hit Count: updated at: Wed, 23 Jan 2019 03:32:57 GMT